Previsão horária em Jurow

Hoje, 24 Junho, Quinta-feira

Tempo Temperatura Precipitação Vento Pressão Humidade
00:00 +23°C° 0.6 mm 1 m/s 742 mmHg 87%
01:00 +23°C° 0.6 mm 1 m/s 742 mmHg 90%
02:00 +21°C° 0.6 mm 2 m/s 742 mmHg 93%
03:00 +21°C° 0 mm 2 m/s 742 mmHg 92%
04:00 +21°C° 0 mm 2 m/s 742 mmHg 92%
05:00 +21°C° 0 mm 2 m/s 742 mmHg 92%
06:00 +23°C° 0 mm 2 m/s 742 mmHg 88%
07:00 +25°C° 0 mm 2 m/s 742 mmHg 84%
08:00 +26°C° 0 mm 2 m/s 742 mmHg 80%
09:00 +28°C° 0 mm 2 m/s 742 mmHg 74%
10:00 +29°C° 0 mm 2 m/s 742 mmHg 68%
11:00 +30°C° 0 mm 2 m/s 742 mmHg 62%
12:00 +31°C° 0 mm 3 m/s 742 mmHg 58%
13:00 +33°C° 0 mm 3 m/s 742 mmHg 55%
14:00 +34°C° 0 mm 3 m/s 741 mmHg 51%
15:00 +34°C° 0 mm 3 m/s 741 mmHg 54%
16:00 +33°C° 0 mm 3 m/s 741 mmHg 56%
17:00 +33°C° 0 mm 3 m/s 740 mmHg 59%
18:00 +30°C° 0.4 mm 3 m/s 740 mmHg 68%
19:00 +27°C° 0.4 mm 3 m/s 740 mmHg 77%
20:00 +25°C° 0.4 mm 3 m/s 740 mmHg 86%
21:00 +24°C° 0.5 mm 2 m/s 740 mmHg 87%
22:00 +23°C° 0.5 mm 2 m/s 740 mmHg 88%
23:00 +22°C° 0.5 mm 1 m/s 740 mmHg 89%

Amanhã, 25 Junho, Sexta-feira

Tempo Temperatura Precipitação Vento Pressão Humidade
00:00 +22°C° 0.1 mm 1 m/s 740 mmHg 90%
01:00 +22°C° 0.1 mm 1 m/s 740 mmHg 91%
02:00 +22°C° 0.1 mm 1 m/s 739 mmHg 92%
03:00 +22°C° 0.5 mm 1 m/s 739 mmHg 92%
04:00 +22°C° 0.5 mm 1 m/s 739 mmHg 93%
05:00 +21°C° 0.5 mm 1 m/s 739 mmHg 94%
06:00 +23°C° 0 mm 2 m/s 739 mmHg 89%
07:00 +25°C° 0 mm 2 m/s 739 mmHg 84%
08:00 +27°C° 0 mm 2 m/s 739 mmHg 80%
09:00 +28°C° 0 mm 3 m/s 739 mmHg 73%
10:00 +30°C° 0 mm 3 m/s 739 mmHg 66%
11:00 +33°C° 0 mm 4 m/s 739 mmHg 60%
12:00 +32°C° 0.1 mm 4 m/s 739 mmHg 61%
13:00 +32°C° 0.1 mm 4 m/s 739 mmHg 61%
14:00 +32°C° 0.1 mm 5 m/s 739 mmHg 62%
15:00 +29°C° 1 mm 5 m/s 739 mmHg 69%
16:00 +27°C° 1 mm 6 m/s 739 mmHg 76%
17:00 +24°C° 1 mm 6 m/s 739 mmHg 83%
18:00 +23°C° 2 mm 4 m/s 739 mmHg 87%
19:00 +21°C° 2 mm 3 m/s 740 mmHg 90%
20:00 +20°C° 2 mm 1 m/s 741 mmHg 93%
21:00 +19°C° 0.1 mm 2 m/s 741 mmHg 93%
22:00 +19°C° 0.1 mm 3 m/s 741 mmHg 93%
23:00 +19°C° 0.1 mm 4 m/s 741 mmHg 94%

Depois de amanhã, 26 Junho, Sábado

Tempo Temperatura Precipitação Vento Pressão Humidade
00:00 +18°C° 0 mm 3 m/s 741 mmHg 94%
01:00 +17°C° 0 mm 2 m/s 741 mmHg 94%
02:00 +16°C° 0 mm 1 m/s 741 mmHg 94%
03:00 +16°C° 0 mm 1 m/s 741 mmHg 94%
04:00 +16°C° 0 mm 1 m/s 742 mmHg 94%
05:00 +16°C° 0 mm 2 m/s 742 mmHg 94%
06:00 +17°C° 0 mm 2 m/s 742 mmHg 92%
07:00 +17°C° 0 mm 2 m/s 742 mmHg 91%
08:00 +18°C° 0 mm 3 m/s 742 mmHg 89%
09:00 +19°C° 0 mm 2 m/s 742 mmHg 83%
10:00 +21°C° 0 mm 2 m/s 742 mmHg 77%
11:00 +23°C° 0 mm 2 m/s 743 mmHg 70%
12:00 +24°C° 0 mm 2 m/s 742 mmHg 67%
13:00 +25°C° 0 mm 3 m/s 742 mmHg 64%
14:00 +25°C° 0 mm 3 m/s 742 mmHg 61%
15:00 +25°C° 0 mm 3 m/s 742 mmHg 65%
16:00 +24°C° 0 mm 3 m/s 742 mmHg 69%
17:00 +23°C° 0 mm 2 m/s 742 mmHg 74%
18:00 +23°C° 0 mm 2 m/s 742 mmHg 76%
19:00 +21°C° 0 mm 2 m/s 742 mmHg 78%
20:00 +20°C° 0 mm 2 m/s 741 mmHg 80%
21:00 +20°C° 0 mm 2 m/s 742 mmHg 79%
22:00 +20°C° 0 mm 2 m/s 742 mmHg 79%
23:00 +19°C° 0 mm 2 m/s 742 mmHg 78%

27 Junho, Domingo

Tempo Temperatura Precipitação Vento Pressão Humidade
00:00 +19°C° 0 mm 2 m/s 742 mmHg 80%
01:00 +18°C° 0 mm 2 m/s 742 mmHg 83%
02:00 +17°C° 0 mm 2 m/s 742 mmHg 85%
03:00 +17°C° 0 mm 2 m/s 742 mmHg 86%
04:00 +16°C° 0 mm 2 m/s 742 mmHg 87%
05:00 +15°C° 0 mm 2 m/s 742 mmHg 88%
06:00 +17°C° 0 mm 2 m/s 742 mmHg 83%
07:00 +19°C° 0 mm 2 m/s 742 mmHg 77%
08:00 +20°C° 0 mm 3 m/s 742 mmHg 71%
09:00 +23°C° 0 mm 2 m/s 742 mmHg 67%
10:00 +24°C° 0 mm 2 m/s 743 mmHg 63%
11:00 +25°C° 0 mm 2 m/s 743 mmHg 59%
12:00 +25°C° 0 mm 2 m/s 743 mmHg 57%
13:00 +26°C° 0 mm 3 m/s 742 mmHg 54%
14:00 +26°C° 0 mm 3 m/s 742 mmHg 52%
15:00 +26°C° 0 mm 2 m/s 742 mmHg 54%
16:00 +26°C° 0 mm 2 m/s 742 mmHg 56%
17:00 +26°C° 0 mm 2 m/s 742 mmHg 57%
18:00 +25°C° 0 mm 1 m/s 742 mmHg 62%
19:00 +24°C° 0 mm 1 m/s 742 mmHg 67%
20:00 +23°C° 0 mm 1 m/s 742 mmHg 71%
21:00 +22°C° 0 mm 1 m/s 742 mmHg 73%
22:00 +20°C° 0 mm 1 m/s 742 mmHg 75%
23:00 +19°C° 0 mm 1 m/s 743 mmHg 77%

28 Junho, Segunda-feira

Tempo Temperatura Precipitação Vento Pressão Humidade
00:00 +19°C° 0 mm 1 m/s 743 mmHg 79%
01:00 +19°C° 0 mm 1 m/s 743 mmHg 81%
02:00 +18°C° 0 mm 1 m/s 743 mmHg 82%
03:00 +18°C° 0 mm 1 m/s 743 mmHg 83%
04:00 +18°C° 0 mm 1 m/s 743 mmHg 84%
05:00 +15°C° 0 mm 0 m/s 743 mmHg 85%
06:00 +17°C° 0 mm 0 m/s 743 mmHg 80%
07:00 +19°C° 0 mm 0 m/s 743 mmHg 75%
08:00 +21°C° 0 mm 0 m/s 743 mmHg 70%
09:00 +24°C° 0 mm 1 m/s 743 mmHg 65%
10:00 +25°C° 0 mm 1 m/s 743 mmHg 60%
11:00 +26°C° 0 mm 1 m/s 743 mmHg 55%
12:00 +27°C° 0 mm 1 m/s 743 mmHg 53%
13:00 +28°C° 0 mm 1 m/s 743 mmHg 51%
14:00 +28°C° 0 mm 1 m/s 743 mmHg 49%
15:00 +28°C° 0 mm 1 m/s 743 mmHg 50%
16:00 +28°C° 0 mm 1 m/s 743 mmHg 51%
17:00 +28°C° 0 mm 1 m/s 743 mmHg 52%
18:00 +26°C° 0 mm 1 m/s 743 mmHg 60%
19:00 +25°C° 0 mm 2 m/s 742 mmHg 67%
20:00 +23°C° 0 mm 2 m/s 742 mmHg 75%
21:00 +21°C° 0 mm 2 m/s 742 mmHg 77%
22:00 +21°C° 0 mm 1 m/s 742 mmHg 78%
23:00 +20°C° 0 mm 1 m/s 742 mmHg 80%

29 Junho, Terça-feira

Tempo Temperatura Precipitação Vento Pressão Humidade
00:00 +20°C° 0 mm 1 m/s 742 mmHg 81%
01:00 +19°C° 0 mm 1 m/s 742 mmHg 82%
02:00 +19°C° 0 mm 1 m/s 742 mmHg 83%
03:00 +19°C° 0 mm 1 m/s 742 mmHg 84%
04:00 +19°C° 0 mm 1 m/s 743 mmHg 85%
05:00 +17°C° 0 mm 2 m/s 743 mmHg 86%
06:00 +19°C° 0 mm 2 m/s 743 mmHg 81%
07:00 +21°C° 0 mm 2 m/s 743 mmHg 76%
08:00 +24°C° 0 mm 2 m/s 743 mmHg 70%
09:00 +25°C° 0 mm 2 m/s 743 mmHg 65%
10:00 +26°C° 0 mm 2 m/s 743 mmHg 61%
11:00 +28°C° 0 mm 3 m/s 743 mmHg 56%
12:00 +28°C° 0 mm 2 m/s 743 mmHg 54%
13:00 +29°C° 0 mm 2 m/s 742 mmHg 53%
14:00 +29°C° 0 mm 2 m/s 742 mmHg 51%
15:00 +29°C° 0 mm 2 m/s 742 mmHg 52%
16:00 +29°C° 0 mm 2 m/s 742 mmHg 53%
17:00 +29°C° 0 mm 2 m/s 742 mmHg 54%
18:00 +28°C° 0 mm 2 m/s 742 mmHg 60%
19:00 +26°C° 0 mm 2 m/s 742 mmHg 67%
20:00 +25°C° 0 mm 2 m/s 742 mmHg 74%
21:00 +24°C° 0 mm 2 m/s 742 mmHg 76%
22:00 +21°C° 0 mm 2 m/s 742 mmHg 78%
23:00 +20°C° 0 mm 2 m/s 742 mmHg 80%
Mostrar mais

Necessitamos do seu Consentimento

A Meteoprog e os seus Fornecedores de Serviços podem armazenar e aceder a dados pessoais como cookies, identificadores do dispositivo ou outras tecnologias semelhantes existentes no seu dispositivo e processar estes dados para personalizar conteúdos e anúncios, assim como funcionalidades nas redes sociais e análise de tráfego.

  • Armazenar e/ou aceder a informações no seu dispositivo

    Os cookies, identificadores do dispositivo ou outras informações podem ser armazenados ou acedidos no seu dispositivo, para os fins acima indicados.

  • Anúncios e conteúdos personalizados, medição de anúncios e conteúdos, dados sobre o público-alvo e desenvolvimento de produtos

    Os anúncios e os conteúdos podem ser personalizados com base num perfil. Podem ser adicionados dados adicionais para uma maior personalização dos anúncios e dos conteúdos. A eficácia dos anúncios e dos conteúdos pode ser medida. Podem ser obtidas informações sobre o público que visualizou os anúncios e os conteúdos. Estes dados podem ser usados para desenvolver ou melhorar sistemas, softwares ou a experiência do utilizador.

Ao clicar em "Eu concordo”, permitirá o uso de cookies, identificadores do dispositivo e web beacons mencionados ou outras tecnologias semelhantes. As configurações do navegador do seu dispositivo podem ser alteradas.

Para certos fins, podem ser invocados interesses legítimos ao invés de consentimento. Pode ler mais informação sobre este assunto na nossa Política de Privacidade e Cookies.